Flag for U.S.A. Weather past 2 weeks in Unalaska, Alaska, U.S.A.

Now
40 °F

Cloudy.


Feels Like: 33 °F
Forecast: 38 / 41 °F
Wind: 12 mph from North

Location: Dutch Harbor

Current Time: Feb 28, 2015 at 10:33:49 AM

Latest Report: Feb 28, 2015 at 8:56 AM


Visibility: 10 mi

Pressure: 30.34 "Hg

Humidity: 89%

Dew point: 37 °F

Location of UnalaskaLocation

Historic Weather in Unalaska — Graph

°F

Unalaska temperature yesterday

Maximum temperature yesterday: 45 °F (at 3:56 PM)
Minimum temperature yesterday: 40 °F (at 12:56 AM)
Average temperature yesterday: 42 °F

Past Weeks' High & Low Weather Summary

 TemperatureHumidityPressure
High46 °F (Feb 19, 1:56 PM)97% (Feb 20, 11:56 PM)30.53 "Hg (Feb 20, 11:56 PM)
Low30 °F (Feb 24, 12:56 AM)50% (Feb 24, 10:56 PM)28.80 "Hg (Feb 16, 6:56 AM)
Average39 °F77%29.72 "Hg
* Reported Feb 13 8:56 AM — Feb 28 8:56 AM, Unalaska, Weather by CustomWeather, © 2015

Note: Actual official high and low records may vary slightly from our data, if they occured in-between our weather recording intervals... More about our weather records

Advertising

Unalaska weather history for previous 24 hours

 ConditionsComfort  
Time TempWeatherWind HumidityBarometerVisibility
8:56 AM
Sat, Feb 28
40 °FCloudy.12 mph89%30.34 "Hg10 mi
7:56 AM40 °FMostly cloudy.9 mph86%30.31 "Hg10 mi
6:56 AM40 °FOvercast.5 mph89%30.31 "Hg10 mi
6:04 AM39 °FMostly cloudy.12 mph93%30.28 "Hg8 mi
5:56 AM40 °FLight rain. Fog.7 mph89%30.29 "Hg6 mi
4:56 AM41 °FOvercast.3 mph82%30.27 "Hg10 mi
3:56 AM42 °FOvercast.6 mph76%30.26 "Hg10 mi
2:56 AM40 °FOvercast.No wind89%30.25 "Hg10 mi
1:56 AM42 °FOvercast.6 mph79%30.23 "Hg10 mi
12:56 AM41 °FMostly cloudy.3 mph89%30.22 "Hg10 mi
11:56 PM
Fri, Feb 27
41 °FMostly cloudy.5 mph89%30.20 "Hg10 mi
10:56 PM41 °FOvercast.No wind89%30.19 "Hg8 mi
9:56 PM42 °FOvercast.No wind82%30.17 "Hg10 mi
8:56 PM42 °FOvercast.7 mph82%30.15 "Hg10 mi
7:56 PM43 °FOvercast.No wind79%30.14 "Hg10 mi
6:56 PM43 °FOvercast.No wind79%30.11 "Hg10 mi
5:56 PM44 °FPartly sunny.8 mph79%30.08 "Hg10 mi
4:56 PM45 °FOvercast.3 mph74%30.07 "Hg10 mi
3:56 PM45 °FOvercast.3 mph74%30.07 "Hg10 mi
2:56 PM44 °FOvercast.3 mph79%30.07 "Hg10 mi
1:56 PM43 °FMostly cloudy.6 mph82%30.08 "Hg10 mi
12:56 PM43 °FCloudy.No wind79%30.09 "Hg10 mi
11:56 AM43 °FMore clouds than sun.6 mph79%30.08 "Hg10 mi
10:56 AM41 °FCloudy.No wind86%30.08 "Hg10 mi
Weather by CustomWeather, © 2015

See weather overviewHow to use our weather pages